Location: Poughquag
(41.6090°N, 73.6820°W)
Time: 10:52:44
(UTC-04:00)

N. Korean satellite - Visible Passes

Search period start: 12 April 2021 00:00
Search period end: 22 April 2021 00:00
Orbit: 453 x 499 km, 97.2° (Epoch: 11 April)

Date Brightness Start Highest point End Pass type
(mag) Time Alt. Az. Time Alt. Az. Time Alt. Az.
12 Apr 9.7 05:22:13 10° NE 05:24:23 15° E 05:26:32 10° SE visible
15 Apr 9.4 05:34:02 10° NE 05:36:50 21° E 05:39:36 10° SE visible
19 Apr 9.7 05:20:08 10° ENE 05:22:04 14° E 05:23:59 10° SE visible
